Location: Ariel
(45.9570°N, 122.5700°W)
Time: 17:08:00
(UTC-07:00)

Transit 2A Rocket - Pass Details

Date: 28 July 2019
Orbit: 590 x 913 km, 66.7° (Epoch: 24 August)

Event Time Altitude Azimuth Distance (km) Brightness Sun altitude
Exits shadow 01:48:15 33° 122° (ESE) 1,413 6.1 -24.6°
Maximum altitude 01:48:43 34° 112° (ESE) 1,396 6.2 -24.6°
Drops below altitude 10° 01:53:45 10° 50° (NE) 2,436 8.2 -24.5°
Sets 01:56:18 0° 41° (NE) 3,323 9.2 -24.4°
